Simultaneous Nadir Overpasses (SNOs) Predictions

Prediction of SNOs between METOP-A and TERRA Satellite Orbit:

Table of predicted SNOs for the next 14.0 days since TLE Epoch: 8/8/2020
Index Date (METOP-A) Time (METOP-A) Lat,Lon (METOP-A) SZA (METOP-A ) Date (TERRA) Time (TERRA) Lat,Lon (TERRA) SZA (TERRA ) Distance(km) Time Diff (sec)
1 08/10/2020 17:54:09 -81.39, 140.74 110.95 08/10/2020 17:54:18 -81.40, 140.71 110.94 1.63 9
2 08/10/2020 18:44:50 81.39, -51.96 69.06 08/10/2020 18:43:45 81.39, -51.89 69.04 1.15 65
3 08/13/2020 13:28:30 -81.40,-153.20 110.13 08/13/2020 13:28:33 -81.38,-153.26 110.14 1.81 3
4 08/13/2020 14:19:10 81.39, 14.45 69.92 08/13/2020 14:17:59 81.39, 14.50 69.89 0.79 71
5 08/16/2020 08:12:10 81.39, 105.98 70.77 08/16/2020 08:13:20 81.40, 105.93 70.80 1.28 70
6 08/16/2020 09:02:51 -81.40, -86.76 109.24 08/16/2020 09:02:48 -81.38, -86.88 109.26 2.60 3
7 08/19/2020 03:46:31 81.39, 172.37 71.68 08/19/2020 03:47:35 81.40, 172.23 71.70 2.24 64
8 08/19/2020 04:37:12 -81.39, -20.34 108.31 08/19/2020 04:37:02 -81.39, -20.17 108.30 2.84 10
9 08/21/2020 23:20:51 81.39,-121.25 72.63 08/21/2020 23:21:48 81.41,-121.12 72.68 2.76 57
